WXM80 ListenWXM80 Stop

You find our weather info also at:

UK Metoffice

WeatherCloud

Weather Underground

Northeastern Weather Network

AWEKAS

Citizen Weather Observer Program (CWOP)

HAMweather, WeatherForYou, PWS Weather


Weather Underground History page Text

Daily Summary for March 2, 2017 Units:  Metric    English   Both
« Previous Day
Next Day »
Daily Weekly Monthly Yearly Custom
  High: Low: Average:
Temperature: 17 °C 2.1 °C 8.4 °C
Dew Point: 11.8 °C -8.3 °C -1.8 °C
Humidity: 77 % 41 % 49 %
Wind Speed: 27.8 km/h 4.7 km/h 14.6 km/h
Wind Gust: 56.3 km/h - -
Wind:- - West
Pressure: 1017.5 hPa 993.8 hPa -
Precipitation: 0 mm    
Historical Graphs
 
 
Tabular Data for March 2, 2017
Time Temperature Dew Point Pressure Wind Wind Speed Wind Gust Humidity Rainfall Rate (Hourly)
00:01 15.1 °C 11.1 °C 994.1 hPa SSW 8.5 km/h 18.5 km/h 77 % 0 mm
00:07 15.1 °C 11.1 °C 994.1 hPa SW 6.9 km/h 24.1 km/h 77 % 0 mm
00:12 15.1 °C 11.1 °C 994.5 hPa SSW 5.6 km/h 13 km/h 77 % 0 mm
00:17 15.1 °C 11.1 °C 994.5 hPa West 7.9 km/h 14.8 km/h 77 % 0 mm
00:22 15.1 °C 11.1 °C 994.1 hPa SW 12.7 km/h 16.7 km/h 77 % 0 mm
00:27 15.1 °C 11.1 °C 994.1 hPa SSW 11.6 km/h 18.5 km/h 77 % 0 mm
00:32 15.2 °C 11.2 °C 994.1 hPa SW 11.7 km/h 12.9 km/h 77 % 0 mm
00:37 15.2 °C 11.2 °C 994.1 hPa SSW 8.9 km/h 18.5 km/h 77 % 0 mm
00:42 15.3 °C 11.3 °C 994.5 hPa WSW 13.8 km/h 20.9 km/h 77 % 0 mm
00:43 15.4 °C 11.3 °C 994.5 hPa SW 14.5 km/h 22.5 km/h 77 % 0 mm
00:48 15.6 °C 11.6 °C 994.5 hPa SW 11.3 km/h 22.5 km/h 77 % 0 mm
00:53 15.7 °C 11.7 °C 994.5 hPa SW 9.7 km/h 29 km/h 77 % 0 mm
00:58 15.9 °C 11.7 °C 994.1 hPa SW 12.1 km/h 17.7 km/h 76 % 0 mm
01:03 16.1 °C 11.7 °C 994.1 hPa WSW 9.5 km/h 14.8 km/h 75 % 0 mm
01:08 16.3 °C 11.6 °C 994.1 hPa WSW 13.2 km/h 24.1 km/h 74 % 0 mm
01:13 16.4 °C 11.8 °C 994.1 hPa South 13.2 km/h 19.3 km/h 74 % 0 mm
01:18 16.6 °C 11.7 °C 994.1 hPa WSW 9.5 km/h 18.5 km/h 73 % 0 mm
01:23 16.7 °C 11.7 °C 993.8 hPa SW 10.8 km/h 22.2 km/h 72 % 0 mm
01:29 16.7 °C 11.7 °C 994.1 hPa SW 9.5 km/h 20.4 km/h 72 % 0 mm
01:34 16.8 °C 11.5 °C 994.1 hPa SW 9.3 km/h 25.9 km/h 71 % 0 mm
01:39 16.8 °C 11.5 °C 993.8 hPa SW 13.7 km/h 22.2 km/h 71 % 0 mm
01:44 16.8 °C 11.6 °C 993.8 hPa SSW 15.3 km/h 27.8 km/h 71 % 0 mm
01:49 16.9 °C 11.6 °C 993.8 hPa WSW 8.9 km/h 24.1 km/h 71 % 0 mm
01:54 16.9 °C 11.4 °C 993.8 hPa West 16.1 km/h 22.2 km/h 70 % 0 mm
01:59 17 °C 11.5 °C 994.1 hPa WNW 10.8 km/h 18.5 km/h 70 % 0 mm
02:04 16.9 °C 10.5 °C 994.5 hPa West 14.3 km/h 31.5 km/h 66 % 0 mm
02:09 16.6 °C 10.2 °C 994.1 hPa West 21.6 km/h 38.9 km/h 66 % 0 mm
02:14 16.2 °C 10.1 °C 994.1 hPa West 7.7 km/h 24.1 km/h 67 % 0 mm
02:19 15.9 °C 10 °C 994.1 hPa WNW 9 km/h 16.7 km/h 68 % 0 mm
02:24 15.6 °C 10.1 °C 994.1 hPa West 11.4 km/h 20.4 km/h 70 % 0 mm
02:30 15.3 °C 10.1 °C 994.1 hPa SW 10.9 km/h 18.5 km/h 71 % 0 mm
02:35 15.2 °C 10.2 °C 994.1 hPa WNW 11.7 km/h 14.8 km/h 72 % 0 mm
02:40 14.9 °C 9.9 °C 994.1 hPa SSW 17.2 km/h 22.2 km/h 72 % 0 mm
02:45 14.8 °C 9.8 °C 994.1 hPa NW 9.5 km/h 14.8 km/h 72 % 0 mm
02:50 14.7 °C 9.5 °C 994.1 hPa NW 11.1 km/h 20.4 km/h 71 % 0 mm
02:55 14.7 °C 9.4 °C 994.1 hPa WSW 8.5 km/h 24.1 km/h 71 % 0 mm
03:00 14.6 °C 9.2 °C 994.5 hPa West 11.3 km/h 25.9 km/h 70 % 0 mm
03:05 14.6 °C 8.9 °C 994.1 hPa SW 9 km/h 18.5 km/h 69 % 0 mm
03:10 14.5 °C 8.9 °C 994.1 hPa SSW 13.5 km/h 29.6 km/h 69 % 0 mm
03:15 14.4 °C 8.8 °C 994.1 hPa SW 8 km/h 18.5 km/h 69 % 0 mm
03:20 14.3 °C 7.6 °C 994.5 hPa West 12.1 km/h 25.7 km/h 64 % 0 mm
03:25 14.3 °C 6.4 °C 994.5 hPa SSW 21.7 km/h 37 km/h 59 % 0 mm
03:30 14.3 °C 5.7 °C 994.5 hPa WSW 16.9 km/h 33.3 km/h 56 % 0 mm
03:36 14.3 °C 5.6 °C 994.5 hPa West 12.2 km/h 18.5 km/h 56 % 0 mm
03:41 14.2 °C 6 °C 994.8 hPa West 11.4 km/h 18.5 km/h 58 % 0 mm
03:46 14.1 °C 6.4 °C 994.8 hPa WSW 18.5 km/h 31.5 km/h 60 % 0 mm
03:51 13.9 °C 6.3 °C 995.1 hPa West 11.6 km/h 24.1 km/h 60 % 0 mm
03:56 13.8 °C 5.7 °C 995.1 hPa WNW 17.9 km/h 24.1 km/h 58 % 0 mm
04:01 13.6 °C 5.2 °C 995.1 hPa WNW 12.6 km/h 14.8 km/h 57 % 0 mm
04:06 13.3 °C 5 °C 995.5 hPa West 11.6 km/h 25.9 km/h 57 % 0 mm
04:11 13.1 °C 4.2 °C 995.8 hPa West 14 km/h 27.4 km/h 55 % 0 mm
04:13 13 °C 3.9 °C 995.8 hPa WNW 11.3 km/h 29.6 km/h 54 % 0 mm
04:18 12.7 °C 2.3 °C 995.8 hPa WSW 12.6 km/h 27.8 km/h 49 % 0 mm
04:23 12.6 °C 1.8 °C 995.8 hPa WSW 20.9 km/h 37 km/h 48 % 0 mm
04:28 12.3 °C 1.6 °C 995.8 hPa West 19.3 km/h 33.8 km/h 48 % 0 mm
04:33 12.2 °C 0.9 °C 996.2 hPa West 19.3 km/h 38.6 km/h 46 % 0 mm
04:38 11.9 °C 1 °C 996.2 hPa WSW 19.3 km/h 35.4 km/h 47 % 0 mm
04:43 11.8 °C 0.5 °C 996.2 hPa West 24.1 km/h 41.8 km/h 46 % 0 mm
04:48 11.7 °C 0.4 °C 996.5 hPa West 16.1 km/h 49.9 km/h 46 % 0 mm
04:53 11.6 °C 0.3 °C 996.5 hPa West 25.7 km/h 56.3 km/h 46 % 0 mm
04:58 11.4 °C 1.1 °C 996.8 hPa WNW 16.3 km/h 24.1 km/h 49 % 0 mm
05:03 11.1 °C 1.1 °C 996.8 hPa West 13.5 km/h 25.9 km/h 50 % 0 mm
05:08 10.8 °C 0.6 °C 996.8 hPa West 14.3 km/h 29.6 km/h 49 % 0 mm
05:13 10.6 °C -0.2 °C 996.5 hPa WSW 17.2 km/h 31.5 km/h 47 % 0 mm
05:18 10.5 °C -0.7 °C 996.8 hPa SW 25.6 km/h 42.6 km/h 46 % 0 mm
05:23 10.4 °C -1.1 °C 996.8 hPa West 21.4 km/h 43.5 km/h 45 % 0 mm
05:29 10.3 °C -0.8 °C 996.8 hPa West 15.8 km/h 27.8 km/h 46 % 0 mm
05:34 10.3 °C -0.8 °C 996.8 hPa WNW 11.7 km/h 20.4 km/h 46 % 0 mm
05:39 10.2 °C -0.1 °C 997.2 hPa WSW 15.4 km/h 29.6 km/h 49 % 0 mm
05:44 10.1 °C 0.4 °C 997.2 hPa SW 16.9 km/h 22.2 km/h 51 % 0 mm
05:49 10 °C 0.1 °C 997.2 hPa West 20.3 km/h 29.6 km/h 50 % 0 mm
05:54 9.9 °C 0 °C 997.5 hPa SW 10.3 km/h 18.5 km/h 50 % 0 mm
05:59 9.8 °C -0.4 °C 997.9 hPa West 24.1 km/h 48.3 km/h 49 % 0 mm
06:04 9.8 °C -0.7 °C 997.5 hPa WSW 18.2 km/h 33.3 km/h 48 % 0 mm
06:09 9.8 °C -0.9 °C 997.9 hPa SW 15.4 km/h 29 km/h 47 % 0 mm
06:14 9.8 °C -1 °C 997.9 hPa WSW 11.9 km/h 22.5 km/h 47 % 0 mm
06:19 9.7 °C -0.8 °C 997.9 hPa WNW 15 km/h 25.9 km/h 48 % 0 mm
06:24 9.6 °C -1.2 °C 997.9 hPa WNW 15.1 km/h 31.5 km/h 47 % 0 mm
06:29 9.5 °C -1 °C 997.9 hPa NW 10.9 km/h 27.8 km/h 48 % 0 mm
06:35 9.4 °C -1.1 °C 998.2 hPa WNW 11.3 km/h 29.6 km/h 48 % 0 mm
06:40 9.3 °C -0.8 °C 998.2 hPa WSW 13 km/h 25.7 km/h 49 % 0 mm
06:45 9.3 °C -0.9 °C 998.2 hPa WSW 14.3 km/h 33.3 km/h 49 % 0 mm
06:50 9.2 °C -0.7 °C 998.2 hPa West 24.5 km/h 25.9 km/h 50 % 0 mm
06:55 9.3 °C -1.2 °C 998.5 hPa WSW 15.8 km/h 40.7 km/h 48 % 0 mm
07:00 9.3 °C -0.8 °C 998.5 hPa SW 24.3 km/h 38.9 km/h 49 % 0 mm
07:05 9.4 °C -1.1 °C 998.5 hPa West 16.9 km/h 44.4 km/h 48 % 0 mm
07:10 9.4 °C -0.8 °C 998.5 hPa SW 20.9 km/h 42.6 km/h 49 % 0 mm
07:15 9.4 °C -0.4 °C 998.5 hPa WSW 8.7 km/h 40.7 km/h 50 % 0 mm
07:20 9.4 °C -0.7 °C 998.5 hPa West 18.7 km/h 29.6 km/h 49 % 0 mm
07:25 9.4 °C -0.7 °C 998.9 hPa WNW 17.2 km/h 29.6 km/h 49 % 0 mm
07:30 9.4 °C -1.1 °C 998.9 hPa WSW 18.8 km/h 31.5 km/h 48 % 0 mm
07:35 9.4 °C -1.1 °C 999.2 hPa SW 17.4 km/h 29.6 km/h 48 % 0 mm
07:41 9.4 °C -1.1 °C 999.2 hPa WNW 22.4 km/h 29.6 km/h 48 % 0 mm
07:46 9.5 °C -1 °C 999.5 hPa SW 20 km/h 29 km/h 48 % 0 mm
07:51 9.5 °C -1 °C 999.5 hPa WNW 21.4 km/h 40.7 km/h 48 % 0 mm
07:56 9.6 °C -0.9 °C 999.9 hPa WSW 24.8 km/h 35.2 km/h 48 % 0 mm
08:01 9.3 °C -1.1 °C 1000.2 hPa WSW 26.1 km/h 42.6 km/h 48 % 0 mm
08:06 9.2 °C -1 °C 1000.2 hPa WSW 24.3 km/h 42.6 km/h 49 % 0 mm
08:11 9.1 °C -1.7 °C 1000.2 hPa SW 20.1 km/h 38.9 km/h 47 % 0 mm
08:16 9.1 °C -1.4 °C 1000.6 hPa SW 16.1 km/h 33.3 km/h 48 % 0 mm
08:19 9 °C -1.7 °C 1000.6 hPa SW 21.1 km/h 29 km/h 47 % 0 mm
08:24 9 °C -1.7 °C 1000.6 hPa West 15.1 km/h 31.5 km/h 47 % 0 mm
08:29 9 °C -1.4 °C 1000.6 hPa WNW 14 km/h 22.2 km/h 48 % 0 mm
08:34 8.9 °C -1.5 °C 1000.6 hPa SSW 27.8 km/h 46.3 km/h 48 % 0 mm
08:39 8.7 °C -2.3 °C 1000.9 hPa West 17.1 km/h 40.7 km/h 46 % 0 mm
08:44 8.6 °C -2.4 °C 1000.9 hPa WNW 19.5 km/h 42.6 km/h 46 % 0 mm
08:49 8.6 °C -1.8 °C 1001.2 hPa WSW 15.9 km/h 29.6 km/h 48 % 0 mm
08:54 8.5 °C -2.5 °C 1001.2 hPa SSW 17.5 km/h 33.3 km/h 46 % 0 mm
08:59 8.6 °C -2.1 °C 1001.2 hPa WNW 19.3 km/h 29.6 km/h 47 % 0 mm
09:04 8.6 °C -2.4 °C 1001.6 hPa WNW 23 km/h 37 km/h 46 % 0 mm
09:09 8.5 °C -2.5 °C 1001.6 hPa WSW 16.3 km/h 33.3 km/h 46 % 0 mm
09:14 8.5 °C -2.8 °C 1001.6 hPa WSW 24.8 km/h 42.6 km/h 45 % 0 mm
09:20 8.5 °C -2.8 °C 1001.9 hPa West 19.6 km/h 35.2 km/h 45 % 0 mm
09:25 8.6 °C -2.7 °C 1002.3 hPa West 20.8 km/h 31.5 km/h 45 % 0 mm
09:30 8.7 °C -2.9 °C 1002.3 hPa WNW 15.4 km/h 33.3 km/h 44 % 0 mm
09:35 8.7 °C -3.2 °C 1002.3 hPa WNW 17.7 km/h 40.2 km/h 43 % 0 mm
09:40 8.6 °C -3.6 °C 1002.3 hPa NNW 22 km/h 38.9 km/h 42 % 0 mm
09:45 8.6 °C -3.3 °C 1002.6 hPa NNW 18.5 km/h 29.6 km/h 43 % 0 mm
09:50 8.5 °C -2.8 °C 1002.6 hPa WNW 15.4 km/h 33.3 km/h 45 % 0 mm
09:55 8.6 °C -3 °C 1002.6 hPa WNW 15.4 km/h 29.6 km/h 44 % 0 mm
10:00 8.7 °C -3.2 °C 1002.9 hPa West 14.6 km/h 25.9 km/h 43 % 0 mm
10:05 8.7 °C -3.2 °C 1002.9 hPa WNW 14.5 km/h 25.9 km/h 43 % 0 mm
10:11 8.5 °C -3.7 °C 1003.3 hPa West 22.5 km/h 50 km/h 42 % 0 mm
10:16 8.4 °C -3.7 °C 1003.6 hPa SW 26.2 km/h 42.6 km/h 42 % 0 mm
10:21 8.4 °C -4.1 °C 1003.6 hPa WNW 14.8 km/h 33.8 km/h 41 % 0 mm
10:26 8.3 °C -4.2 °C 1003.6 hPa WNW 26.9 km/h 51.8 km/h 41 % 0 mm
10:31 8.2 °C -3.9 °C 1003.9 hPa WNW 19.5 km/h 35.2 km/h 42 % 0 mm
10:36 8.2 °C -4 °C 1003.9 hPa West 18.7 km/h 50 km/h 42 % 0 mm
10:41 8.2 °C -3.7 °C 1003.9 hPa SW 14.3 km/h 40.7 km/h 43 % 0 mm
10:46 8.2 °C -3.9 °C 1003.9 hPa WNW 15.8 km/h 38.9 km/h 42 % 0 mm
10:51 8.3 °C -3.6 °C 1003.9 hPa West 17.7 km/h 42.6 km/h 43 % 0 mm
10:56 8.3 °C -3.9 °C 1004.3 hPa West 16.9 km/h 31.5 km/h 42 % 0 mm
11:01 8.4 °C -3.2 °C 1004.3 hPa NW 14.3 km/h 33.3 km/h 44 % 0 mm
11:06 8.3 °C -4.2 °C 1004.6 hPa WNW 17.4 km/h 24.1 km/h 41 % 0 mm
11:11 8.3 °C -3.8 °C 1004.6 hPa WNW 18.3 km/h 31.5 km/h 42 % 0 mm
11:16 8.3 °C -4.2 °C 1004.6 hPa West 26.4 km/h 40.7 km/h 41 % 0 mm
11:22 8.1 °C -4.1 °C 1005 hPa NW 17.2 km/h 29.6 km/h 42 % 0 mm
11:27 8.1 °C -4.1 °C 1005 hPa West 19.3 km/h 40.7 km/h 42 % 0 mm
11:32 8.1 °C -4.1 °C 1005 hPa WNW 18.3 km/h 33.3 km/h 42 % 0 mm
11:37 8.1 °C -4.4 °C 1005 hPa West 27.2 km/h 40.7 km/h 41 % 0 mm
11:42 7.9 °C -3.9 °C 1005.3 hPa WNW 20.3 km/h 37 km/h 43 % 0 mm
11:47 7.9 °C -3.6 °C 1005.3 hPa NNW 24 km/h 33.3 km/h 44 % 0 mm
11:52 8 °C -3.6 °C 1005 hPa WNW 19.2 km/h 29.6 km/h 44 % 0 mm
11:57 8.1 °C -3.2 °C 1005.3 hPa WNW 18.8 km/h 31.5 km/h 45 % 0 mm
12:02 8.2 °C -3.1 °C 1005.3 hPa WNW 14 km/h 25.7 km/h 45 % 0 mm
12:07 8.2 °C -3.6 °C 1005.3 hPa NW 13.7 km/h 33.3 km/h 43 % 0 mm
12:12 8.3 °C -3.3 °C 1005.6 hPa WNW 14.5 km/h 27.8 km/h 44 % 0 mm
12:17 8.3 °C -3.2 °C 1005.6 hPa West 14.8 km/h 35.2 km/h 44 % 0 mm
12:23 8.4 °C -3.2 °C 1005.6 hPa WNW 18.3 km/h 33.3 km/h 44 % 0 mm
12:28 8.4 °C -3.5 °C 1005.6 hPa NW 15.3 km/h 42.6 km/h 43 % 0 mm
12:33 8.4 °C -3.5 °C 1005.6 hPa WNW 18.5 km/h 37 km/h 43 % 0 mm
12:38 8.3 °C -3.8 °C 1006 hPa NW 11.1 km/h 35.2 km/h 42 % 0 mm
12:43 8.2 °C -4 °C 1006 hPa WNW 14.5 km/h 27.8 km/h 42 % 0 mm
12:48 8.2 °C -3.4 °C 1006 hPa WSW 15.6 km/h 25.9 km/h 44 % 0 mm
12:53 8.2 °C -3.7 °C 1006.3 hPa NW 12.1 km/h 31.5 km/h 43 % 0 mm
12:58 8.1 °C -3.7 °C 1006.3 hPa West 17.7 km/h 31.5 km/h 43 % 0 mm
13:03 8 °C -3.8 °C 1006.3 hPa WNW 19.3 km/h 37 km/h 43 % 0 mm
13:08 8 °C -3.6 °C 1006.3 hPa WNW 19.3 km/h 33.8 km/h 44 % 0 mm
13:13 7.9 °C -4.2 °C 1006.3 hPa WNW 12.9 km/h 33.8 km/h 42 % 0 mm
13:18 8.1 °C -3.8 °C 1006.3 hPa WNW 14.5 km/h 33.8 km/h 43 % 0 mm
13:23 8.1 °C -4.1 °C 1006.3 hPa WNW 20.9 km/h 41.8 km/h 42 % 0 mm
13:28 7.9 °C -3.9 °C 1006.3 hPa NW 12.9 km/h 35.4 km/h 43 % 0 mm
13:33 7.9 °C -3.9 °C 1006.3 hPa WNW 12.9 km/h 32.2 km/h 43 % 0 mm
13:38 7.9 °C -3.9 °C 1006.7 hPa WNW 13.2 km/h 22.2 km/h 43 % 0 mm
13:43 8.1 °C -3.8 °C 1006.7 hPa WNW 19.3 km/h 40.2 km/h 43 % 0 mm
13:48 8 °C -3.5 °C 1007 hPa WNW 14.5 km/h 32.2 km/h 44 % 0 mm
13:53 8 °C -3.6 °C 1007.3 hPa WNW 16.1 km/h 32.2 km/h 44 % 0 mm
13:58 7.9 °C -3.9 °C 1007.3 hPa WNW 18.2 km/h 31.5 km/h 43 % 0 mm
14:03 7.8 °C -4.6 °C 1007.3 hPa NW 21.4 km/h 35.2 km/h 41 % 0 mm
14:08 7.7 °C -4.4 °C 1007.3 hPa NW 19.6 km/h 31.5 km/h 42 % 0 mm
14:13 7.7 °C -4.2 °C 1007.3 hPa WNW 18.7 km/h 33.3 km/h 43 % 0 mm
14:18 7.7 °C -4.2 °C 1007.7 hPa WNW 13 km/h 27.8 km/h 43 % 0 mm
14:23 7.7 °C -3.8 °C 1007.7 hPa NNW 10.3 km/h 22.2 km/h 44 % 0 mm
14:29 7.7 °C -3.6 °C 1007.7 hPa WNW 14 km/h 22.5 km/h 45 % 0 mm
14:34 7.6 °C -3.9 °C 1007.7 hPa WNW 14 km/h 35.2 km/h 44 % 0 mm
14:39 7.4 °C -4.3 °C 1007.7 hPa NNW 16.9 km/h 27.8 km/h 43 % 0 mm
14:44 7.4 °C -4.3 °C 1008 hPa WNW 22.7 km/h 40.2 km/h 43 % 0 mm
14:49 7.3 °C -4.5 °C 1008 hPa WNW 22.7 km/h 31.5 km/h 43 % 0 mm
14:54 7.1 °C -4.1 °C 1008 hPa WNW 16.9 km/h 25.9 km/h 45 % 0 mm
14:59 7 °C -4.7 °C 1008 hPa NW 9.2 km/h 33.3 km/h 43 % 0 mm
15:04 6.9 °C -4.8 °C 1008 hPa WNW 19.8 km/h 33.8 km/h 43 % 0 mm
15:09 6.8 °C -4.9 °C 1008.4 hPa WNW 18.8 km/h 29.6 km/h 43 % 0 mm
15:14 6.8 °C -4.9 °C 1008.4 hPa WSW 19.2 km/h 31.5 km/h 43 % 0 mm
15:19 6.7 °C -4.4 °C 1008.7 hPa NW 16.1 km/h 27.8 km/h 45 % 0 mm
15:24 6.7 °C -4.4 °C 1008.7 hPa NNW 14.6 km/h 22.5 km/h 45 % 0 mm
15:30 6.6 °C -4.8 °C 1008.7 hPa NW 12.6 km/h 20.4 km/h 44 % 0 mm
15:35 6.6 °C -4.8 °C 1009 hPa NW 20.3 km/h 37 km/h 44 % 0 mm
15:40 6.6 °C -4.6 °C 1009 hPa WNW 14.3 km/h 25.9 km/h 45 % 0 mm
15:45 6.5 °C -4.6 °C 1009 hPa WNW 9.7 km/h 25.9 km/h 45 % 0 mm
15:50 6.4 °C -5.3 °C 1009.4 hPa WNW 15.3 km/h 29.6 km/h 43 % 0 mm
15:55 6.4 °C -4.7 °C 1009.4 hPa NW 12.2 km/h 29.6 km/h 45 % 0 mm
16:00 6.3 °C -5.1 °C 1009.7 hPa NW 10.5 km/h 31.5 km/h 44 % 0 mm
16:05 6.2 °C -5.4 °C 1009.7 hPa SW 15.3 km/h 24.1 km/h 43 % 0 mm
16:10 6.2 °C -5.2 °C 1009.7 hPa NW 19.2 km/h 31.5 km/h 44 % 0 mm
16:15 6.1 °C -5.3 °C 1009.7 hPa NW 9 km/h 18.5 km/h 44 % 0 mm
16:20 6.1 °C -5.3 °C 1009.7 hPa WNW 13.2 km/h 27.8 km/h 44 % 0 mm
16:26 6 °C -5.3 °C 1010 hPa WNW 12.1 km/h 24.1 km/h 44 % 0 mm
16:31 5.9 °C -5.7 °C 1010 hPa NW 17.4 km/h 25.9 km/h 43 % 0 mm
16:36 5.9 °C -5.2 °C 1010 hPa West 16.9 km/h 29.6 km/h 45 % 0 mm
16:41 5.8 °C -4.9 °C 1010.4 hPa NW 12.2 km/h 18.5 km/h 46 % 0 mm
16:46 5.8 °C -4.9 °C 1010.4 hPa WNW 17.1 km/h 31.5 km/h 46 % 0 mm
16:51 5.7 °C -5.3 °C 1010.7 hPa NW 12.7 km/h 27.8 km/h 45 % 0 mm
16:56 5.7 °C -5.3 °C 1010.4 hPa WNW 12.6 km/h 24.1 km/h 45 % 0 mm
17:01 5.6 °C -4.8 °C 1010.7 hPa NW 11.9 km/h 27.4 km/h 47 % 0 mm
17:06 5.6 °C -5.2 °C 1011.1 hPa West 15.3 km/h 27.8 km/h 46 % 0 mm
17:11 5.5 °C -4.9 °C 1011.1 hPa WNW 15.6 km/h 27.8 km/h 47 % 0 mm
17:16 5.4 °C -5.9 °C 1011.1 hPa NW 15.4 km/h 20.9 km/h 44 % 0 mm
17:21 5.3 °C -6.3 °C 1011.1 hPa West 16.6 km/h 31.5 km/h 43 % 0 mm
17:27 5.3 °C -5.7 °C 1011.4 hPa WSW 13 km/h 22.2 km/h 45 % 0 mm
17:32 5.2 °C -6.1 °C 1011.4 hPa WNW 15.4 km/h 29.6 km/h 44 % 0 mm
17:37 5.2 °C -5.8 °C 1011.7 hPa WNW 13.7 km/h 29.6 km/h 45 % 0 mm
17:42 5.2 °C -6.1 °C 1011.7 hPa NW 14.8 km/h 22.5 km/h 44 % 0 mm
17:47 5.1 °C -6.8 °C 1012.1 hPa NW 13.8 km/h 22.2 km/h 42 % 0 mm
17:52 5.1 °C -6.5 °C 1012.1 hPa NW 12.9 km/h 29.6 km/h 43 % 0 mm
17:57 5 °C -7.2 °C 1012.4 hPa NW 17.5 km/h 31.5 km/h 41 % 0 mm
18:02 5 °C -7.2 °C 1012.1 hPa NW 12.6 km/h 25.9 km/h 41 % 0 mm
18:07 5 °C -6.9 °C 1012.4 hPa WNW 17.1 km/h 32.2 km/h 42 % 0 mm
18:12 4.9 °C -6.9 °C 1012.4 hPa NW 13 km/h 22.2 km/h 42 % 0 mm
18:17 4.9 °C -6.9 °C 1012.4 hPa North 9.3 km/h 18.5 km/h 42 % 0 mm
18:22 4.9 °C -6.7 °C 1012.4 hPa NW 11.7 km/h 22.2 km/h 43 % 0 mm
18:27 4.8 °C -6.7 °C 1012.8 hPa NW 11.4 km/h 16.7 km/h 43 % 0 mm
18:33 4.8 °C -6.4 °C 1013.1 hPa NNW 14.2 km/h 18.5 km/h 44 % 0 mm
18:38 4.8 °C -6.8 °C 1013.1 hPa NW 12.6 km/h 24.1 km/h 43 % 0 mm
18:43 4.8 °C -6.8 °C 1013.1 hPa West 8.7 km/h 18.5 km/h 43 % 0 mm
18:48 4.8 °C -6.8 °C 1013.1 hPa West 8.2 km/h 18.5 km/h 43 % 0 mm
18:53 4.7 °C -6.8 °C 1013.4 hPa West 10.3 km/h 25.9 km/h 43 % 0 mm
18:58 4.7 °C -6.8 °C 1013.4 hPa West 12.2 km/h 18.5 km/h 43 % 0 mm
19:03 4.7 °C -6.8 °C 1013.8 hPa WNW 8 km/h 27.4 km/h 43 % 0 mm
19:08 4.7 °C -6.6 °C 1013.8 hPa WNW 8 km/h 19.3 km/h 44 % 0 mm
19:13 4.7 °C -6.6 °C 1013.8 hPa WNW 9.7 km/h 20.9 km/h 44 % 0 mm
19:18 4.6 °C -6.9 °C 1013.8 hPa WNW 8 km/h 29 km/h 43 % 0 mm
19:23 4.6 °C -6.9 °C 1014.1 hPa WNW 8 km/h 24.1 km/h 43 % 0 mm
19:28 4.6 °C -7.3 °C 1014.1 hPa WNW 11.3 km/h 22.5 km/h 42 % 0 mm
19:33 4.6 °C -7.3 °C 1014.1 hPa WNW 8 km/h 20.9 km/h 42 % 0 mm
19:38 4.5 °C -7.3 °C 1014.4 hPa WNW 8 km/h 25.7 km/h 42 % 0 mm
19:43 4.5 °C -7.6 °C 1014.4 hPa WNW 14.3 km/h 22.2 km/h 41 % 0 mm
19:48 4.4 °C -7.4 °C 1014.4 hPa West 12.9 km/h 22.5 km/h 42 % 0 mm
19:53 4.4 °C -7.1 °C 1014.8 hPa WNW 6.1 km/h 14.8 km/h 43 % 0 mm
19:58 4.4 °C -7.4 °C 1014.8 hPa WNW 15.1 km/h 18.5 km/h 42 % 0 mm
20:03 4.3 °C -7.5 °C 1014.8 hPa WNW 8.4 km/h 14.8 km/h 42 % 0 mm
20:08 4.3 °C -7.5 °C 1014.8 hPa West 17.4 km/h 27.8 km/h 42 % 0 mm
20:13 4.3 °C -7.2 °C 1014.8 hPa West 10.1 km/h 14.5 km/h 43 % 0 mm
20:18 4.2 °C -7.3 °C 1014.8 hPa WNW 9.8 km/h 16.7 km/h 43 % 0 mm
20:23 4.2 °C -7 °C 1015.1 hPa WNW 10.1 km/h 18.5 km/h 44 % 0 mm
20:28 4.2 °C -7 °C 1015.1 hPa SW 8.5 km/h 14.8 km/h 44 % 0 mm
20:33 4.1 °C -7.4 °C 1015.1 hPa WSW 10.8 km/h 18.5 km/h 43 % 0 mm
20:38 4.1 °C -7.1 °C 1015.5 hPa WSW 11.3 km/h 20.4 km/h 44 % 0 mm
20:43 4.1 °C -7.7 °C 1015.5 hPa West 13.7 km/h 25.9 km/h 42 % 0 mm
20:48 4.1 °C -7.4 °C 1015.5 hPa NNW 10.1 km/h 20.4 km/h 43 % 0 mm
20:53 4 °C -7.2 °C 1015.5 hPa NW 7.2 km/h 16.1 km/h 44 % 0 mm
20:59 3.9 °C -7.8 °C 1015.5 hPa NNW 14.2 km/h 31.5 km/h 42 % 0 mm
21:04 3.9 °C -7.2 °C 1015.8 hPa West 13 km/h 20.9 km/h 44 % 0 mm
21:09 3.9 °C -7.6 °C 1015.8 hPa NNW 11.9 km/h 22.2 km/h 43 % 0 mm
21:14 3.8 °C -7.9 °C 1015.8 hPa NW 11.4 km/h 25.9 km/h 42 % 0 mm
21:19 3.8 °C -8 °C 1016.1 hPa NW 16.6 km/h 27.8 km/h 42 % 0 mm
21:24 3.7 °C -7.7 °C 1016.1 hPa WNW 13.4 km/h 24.1 km/h 43 % 0 mm
21:29 3.7 °C -7.5 °C 1016.1 hPa WNW 10.9 km/h 20.4 km/h 44 % 0 mm
21:34 3.7 °C -6.9 °C 1016.1 hPa West 8.2 km/h 16.7 km/h 46 % 0 mm
21:39 3.6 °C -7.6 °C 1016.1 hPa NW 7.1 km/h 13 km/h 44 % 0 mm
21:44 3.5 °C -7.6 °C 1016.1 hPa SW 8.5 km/h 18.5 km/h 44 % 0 mm
21:49 3.4 °C -8 °C 1016.1 hPa NW 15.8 km/h 27.8 km/h 43 % 0 mm
21:54 3.4 °C -8.3 °C 1016.5 hPa WNW 7.7 km/h 16.1 km/h 42 % 0 mm
22:00 3.3 °C -7.8 °C 1016.5 hPa WNW 10.6 km/h 18.5 km/h 44 % 0 mm
22:05 3.3 °C -7.3 °C 1016.5 hPa WNW 5.8 km/h 16.7 km/h 46 % 0 mm
22:10 3.2 °C -6.8 °C 1016.8 hPa NW 9.3 km/h 18.5 km/h 48 % 0 mm
22:15 3.2 °C -6.8 °C 1016.8 hPa NW 9.8 km/h 18.5 km/h 48 % 0 mm
22:20 3.1 °C -7.1 °C 1016.8 hPa NW 17.1 km/h 29.6 km/h 47 % 0 mm
22:25 3.1 °C -7.7 °C 1016.8 hPa North 10 km/h 24.1 km/h 45 % 0 mm
22:27 3 °C -7.5 °C 1016.8 hPa NW 9.8 km/h 16.7 km/h 46 % 0 mm
22:32 2.9 °C -7.8 °C 1016.8 hPa NW 6.9 km/h 13 km/h 45 % 0 mm
22:37 2.9 °C -7.9 °C 1017.2 hPa West 15.3 km/h 24.1 km/h 45 % 0 mm
22:43 2.8 °C -8.2 °C 1016.8 hPa WNW 7.1 km/h 16.7 km/h 44 % 0 mm
22:48 2.8 °C -7.9 °C 1017.2 hPa SW 14.5 km/h 25.9 km/h 45 % 0 mm
22:53 2.8 °C -8 °C 1017.2 hPa WSW 13.7 km/h 18.5 km/h 45 % 0 mm
22:58 2.7 °C -8.3 °C 1017.2 hPa NNW 13.4 km/h 18.5 km/h 44 % 0 mm
23:03 2.7 °C -7.8 °C 1017.2 hPa NW 6.8 km/h 13 km/h 46 % 0 mm
23:08 2.6 °C -7.9 °C 1017.2 hPa NW 8.2 km/h 18.5 km/h 46 % 0 mm
23:13 2.5 °C -8.3 °C 1017.2 hPa West 12.4 km/h 18.5 km/h 45 % 0 mm
23:18 2.5 °C -8.3 °C 1017.5 hPa WNW 11.9 km/h 20.4 km/h 45 % 0 mm
23:23 2.4 °C -8.3 °C 1017.5 hPa NW 8.2 km/h 16.7 km/h 45 % 0 mm
23:28 2.4 °C -8.3 °C 1017.5 hPa West 4.7 km/h 22.2 km/h 45 % 0 mm
23:33 2.3 °C -8.1 °C 1017.5 hPa NW 9.5 km/h 13 km/h 46 % 0 mm
23:38 2.3 °C -8.2 °C 1017.5 hPa WNW 10.6 km/h 27.8 km/h 46 % 0 mm
23:43 2.2 °C -8.2 °C 1017.5 hPa WNW 14.5 km/h 32.2 km/h 46 % 0 mm
23:48 2.1 °C -8.1 °C 1017.5 hPa NW 6.9 km/h 24.1 km/h 47 % 0 mm
23:53 2.1 °C -7.8 °C 1017.5 hPa WNW 9.7 km/h 25.7 km/h 48 % 0 mm
23:58 2.1 °C -8.1 °C 1017.5 hPa WNW 9.2 km/h 25.9 km/h 47 % 0 mm
Crab Meadow Weather
Compliments of Weather Underground - 3 mb

Script developed by  Jim McMurry - jmcmurry@mwt.net Adapted for the template by  Wim van der Kuil - Leuven-Template.eu

Weather Terms: Winter Weather Advisory - Hazardous winter weather conditions are occurring, imminent or likely. Conditions will cause a significant inconvenience and if caution is not exercised, will result in a potential threat to life and/or property. The generic term, winter weather advisory, is used for a combination of two or more of the following events; snow, freezing rain or drizzle, sleet, blowing snow.